#timestamp,LO_Frequency,Hit,StdDev 
1684598415.5,286047002.1,N
1684598435.3,286047001.0,N
1684598455.2,286047000.7,N
1684598475.9,286047000.4,N
1684598495.7,286046998.2,N
1684598515.6,286047000.7,N
1684598535.4,286047005.6,N
1684598555.2,286047008.1,Y
1684598575.1,286047010.3,P
1684598576.0,286047010.3,N
1684598595.8,286047013.1,P
1684598615.7,286047010.9,N
1684598635.5,286047011.4,N
1684598655.3,286047014.0,Y
1684598675.2,286047002.3,P
1684598695.0,286046997.5,N
1684598695.9,286046997.5,N
1684598715.8,286046996.4,N
1684598735.6,286046995.5,N
1684598755.4,286046995.1,N
1684598775.3,286046994.6,N
1684598795.1,286046992.6,N
1684598796.0,286046992.6,N
1684598815.8,286046992.3,N
1684598835.7,286046993.1,N
1684598855.5,286046990.1,N
1684598875.3,286046991.9,N
1684598895.2,286046992.3,N
1684598915.0,286046990.9,N
1684598915.9,286046990.9,N
1684598935.8,286046993.0,N
1684598955.6,286046997.4,N
1684598975.4,286046999.0,N
1684598995.3,286046999.5,N
1684599015.1,286047000.6,N
1684599035.8,286047001.1,N
1684599055.7,286047000.4,N
1684599075.5,286047005.2,N
1684599095.4,286047006.7,N
1684599115.2,286047006.2,N
1684599135.0,286047005.2,N
1684599135.9,286047005.2,N
1684599155.8,286047004.2,N
1684599175.6,286047003.7,N
1684599195.4,286047006.0,N
1684599215.3,286047001.7,N
1684599235.1,286047002.5,N
1684599255.9,286047002.2,N
1684599275.7,286047004.9,N
1684599295.5,286047004.9,N
1684599315.4,286047004.4,N
1684599335.2,286047003.6,N
1684599355.0,286047008.4,N
1684599356.0,286047008.4,N
1684599375.8,286047012.4,N
1684599395.6,286047009.3,N
1684599415.5,286047013.4,N
1684599435.3,286047015.8,N
1684599455.1,286047016.9,N
1684599475.9,286047011.3,N
1684599495.7,286047016.4,Y
1684599515.6,286047013.4,P
1684599535.4,286047021.5,P
1684599555.2,286047023.1,P
1684599575.1,286047015.7,N
1684599576.0,286047015.7,N
1684599595.8,286047014.2,N
1684599615.6,286047015.5,N
1684599635.5,286047013.6,N
1684599655.3,286047012.4,N
1684599675.2,286047013.5,N
1684599695.9,286047014.3,Y
1684599715.7,286047002.7,P
1684599735.6,286047004.3,N
1684599755.4,286047005.2,N
1684599775.2,286047003.2,N
1684599795.1,286047008.3,N
1684599796.0,286047008.3,N
1684599815.8,286047004.6,N
1684599835.7,286047003.6,N
1684599855.5,286047007.6,N
1684599875.3,286047008.8,N
1684599895.2,286047005.4,N
1684599915.0,286047002.1,N
1684599915.9,286047002.1,N
1684599935.8,286047004.4,N
1684599955.6,286047004.6,N
1684599975.4,286047008.2,N
1684599995.3,286047014.8,Y
1684600015.1,286047006.1,P
1684600035.8,286047007.3,P
1684600055.7,286047000.3,N
1684600075.5,286047000.9,N
1684600095.4,286047002.3,N
1684600115.2,286047000.5,N
1684600135.0,286047002.2,N
1684600135.9,286047002.2,N
1684600155.8,286047002.0,N
1684600175.6,286047004.3,N
1684600195.4,286046999.7,N
1684600215.3,286047000.9,N
1684600235.1,286047002.1,N
1684600255.9,286047002.8,N
1684600275.7,286047003.7,N
1684600295.5,286047005.5,N
1684600315.4,286047001.2,N
1684600335.2,286046996.9,N
1684600355.0,286046998.1,N
1684600355.9,286046998.1,N
1684600375.8,286047005.8,N
1684600395.6,286047005.6,N
1684600415.5,286047003.3,N
1684600435.3,286047005.5,N
1684600455.1,286047003.1,N
1684600475.9,286047002.5,N
1684600495.7,286047000.8,N
1684600515.6,286046997.1,N
1684600535.4,286046997.3,N
1684600555.2,286047000.0,N
1684600575.1,286046999.5,N
1684600576.0,286046999.5,N
1684600595.8,286046998.2,N
1684600615.6,286046999.3,N
1684600635.5,286046998.0,N
1684600655.3,286047001.1,N
1684600675.2,286047004.4,N
1684600695.9,286047001.7,N
1684600715.7,286046999.7,N
1684600735.6,286046999.4,N
1684600755.4,286046997.1,N
1684600775.2,286046994.9,N
1684600795.1,286046995.6,N
1684600796.0,286046995.6,N
1684600815.8,286046995.4,N
1684600835.7,286046996.2,N
1684600855.5,286046998.0,N
1684600875.3,286046996.7,N
1684600895.2,286047002.8,N
1684600915.0,286047002.5,N
1684600915.9,286047002.5,N
1684600935.7,286046999.8,N
1684600955.6,286046998.1,N
1684600975.4,286046996.8,N
1684600995.3,286046999.5,N
1684601015.1,286047001.2,N
1684601035.8,286047004.2,N
1684601055.7,286047003.0,N
1684601075.5,286047006.7,N
1684601095.4,286047007.1,N
1684601115.2,286047015.2,Y
1684601135.0,286047015.0,P
1684601135.9,286047015.0,N
1684601155.8,286047013.4,N
1684601175.6,286047010.4,N
1684601195.4,286047009.5,N
1684601215.3,286047013.2,N
1684601235.1,286047018.4,Y
1684601255.9,286047008.0,P
1684601275.7,286047006.5,P
1684601295.5,286047005.5,N
1684601315.4,286047002.4,N
1684601335.2,286046999.8,N
1684601355.1,286046998.2,N
1684601356.0,286046998.2,N
1684601375.8,286047000.2,N
1684601395.6,286047001.7,N
1684601415.5,286047001.5,N
1684601435.3,286047002.6,N
1684601455.2,286047002.9,N
1684601475.0,286047008.9,N
1684601475.9,286047008.9,N
1684601495.8,286047005.2,N
1684601515.6,286047001.5,N
1684601535.4,286046998.3,N
1684601555.3,286046998.8,N
1684601575.1,286046997.6,N
1684601595.9,286046996.3,N
1684601615.7,286046994.0,N
1684601635.5,286046995.2,N
1684601655.4,286046999.0,N
1684601675.2,286046999.2,N
1684601695.1,286047001.6,N
1684601696.0,286047001.6,N
1684601715.8,286047006.3,N
1684601735.6,286047013.1,Y
1684601755.5,286047008.1,P
1684601775.3,286047003.8,N
1684601795.1,286047000.1,N
1684601815.9,286047000.8,N
1684601835.7,286046998.1,N
1684601855.6,286047003.9,N
1684601875.4,286047003.5,N
1684601895.2,286046999.7,N
1684601915.1,286046998.7,N
1684601916.0,286046998.7,N
1684601935.8,286046998.2,N
1684601955.7,286046999.8,N
1684601975.5,286047004.3,N
1684601995.3,286047004.3,N
